STARLINK-34898, 65895

Orbit data source: Space-Track

STARLINK-34898, 65895 is a payload satellite owned by SpaceX/Seattle (US) in LEO that was launched on Tue, 07 Oct 2025 UTC via an FALCON 9 launch vehicle from the Air Force Eastern Test Range (AFETR). Payload-class satellites include a variety of spacecraft equipped with specific instruments for various scientific and technological missions. These include communications satellites like Starlink; space stations such as the ISS; scientific satellites like the Hubble; Earth observation satellites from companies like Planet Labs, Umbra, and HawkEye 360; GPS; miniature CubeSats for education and research; and military/defense satellites.

Loading next visibility...
Identifier
65895, 2025-224P
Orbit
LEO
Country
Flag of USUS
Related business
Manufacturer
SpaceX/Seattle
Mission
Operational spacecraft
Bus & Motor
STARLINK V2MO, Unknown motor
Mass
575 kg wet, ~530 kg dry
Launch date (UTC)
2025-10-07 (2 months ago)
Launch vehicle
FALCON 9
Launch site
Air Force Eastern Test Range (AFETR)
Object type
Payload
Rocket body
Debris
Shape & HBR
Unknown shape, 17.7 m
Radar Cross Section
RCS unknown

Expand to show TLE details & history
Last TLE update: 17 hours ago

TLE from 17 hours ago
0 STARLINK-34898
1 65895U 25224P   25340.67543470  .00032721  00000-0  11115-2 0  9994
2 65895  53.1636  83.3627 0001124  83.7836 276.3293 15.30214399 10630
Epoch: 2025-12-06T16:12Z
TLE epoch observation values (Epoch: 2025-12-06T16:12:37.558Z)
Latitude
0.00001°
Longitude
124.50645°
Altitude
475.987 km
Speed
7.629 km/s
True Right ascension
05h 33m 27s
True Declination
0° 00' 00"
Sunlit
Object was in full shadow at epoch
Visualization orbit readout
Latitude
Unknown
Longitude
Unknown
Altitude
Unknown
Speed
Unknown
Apparent Right ascension
Unknown
Apparent Declination
Unknown
Sunlit
N/A
Visualization observer readout
Local Sidereal Time
07:18:37
Azimuth
Unknown
Elevation
Unknown
Doppler factor
Unknown
Orbital elements
Apogee altitude
476.198 km
Perigee altitude
474.658 km
Semi-major axis
6,853.565 km
Eccentricity
0.00011
Inclination
53.1636°
RAAN
83.3627°
Arg. of periapsis
83.7836°
True anomaly
276.3165°
Mean anomaly
276.3293°
Eccentric anomaly
276.3229°
Mean motion
3.82533 °/min
Orbital period
94.11 mins
BSTAR
0.0011115
Loading maneuver chart data...
Computing Atmospheric mass density...
Loading historical data...
Loading historical data...
Loading historical data...
Loading historical data...
Loading historical data...
Loading historical data...
Loading historical data...

Documentation

Showing up to 5 results
|